一网星座-0356星 (ONEWEB-0356 )

导读 | 豆包AI

ONEWEB-0356是英国OneWeb公司星座组网卫星之一,于2021年10月14日发射,属于低轨互联网卫星项目。卫星重约147.5kg,运行于高度1200km、倾角87.4°近地轨道,配备Ku/Ka波段天线与离子电推进系统,旨在为全球提供稳定、高速的宽带互联网连接,是OneWeb打造全球卫星互联网星座的重要组成部分,支撑全球偏远地区、海上与航空的网络覆盖。

Basic Information
目录编号:
49283
目录名称:
ONEWEB-0356
国际标识:
2021-090E
轨道中心:
EARTH
卫星名称:
一网星座-0356星
卫星全名:
一网星座-0356星 (ONEWEB-0356 )
卫星状态:
在轨 (已飞行1612 天)
发射日期:
2021-10-14 UTC
国别 :
英国 (GB)
星等 :
--
Orbit Information
数据来源 国际轨道数据 AOE轨道数据
星历时间 2026-03-14T04:21:40+0800
15小时前
查看轨道信息
2026-03-10T18:00:00+0800
4天前
查看轨道信息
半长轴 7559.918km 7559.92km
偏心率 0.0000778 0.0000614
轨道倾角 87.916° 87.918°
近地点辐角 89.426° 82.493°
升交点赤经 293.471° 294.155°
平近点角 270.697° 169.995°
近地点 1181.192km 1181.318km
远地点 1182.37km 1182.248km
周期 109.027分钟 109.027分钟
每日圈数 13.207699 13.207695
Detailed Information
平衡模式:
三轴稳定
覆盖范围:
全球
运营商:
一网卫星公司
运营商所在国:
英国
制造商(研发单位):
一网卫星公司
制造商所在国:
英国
使用方式:
暂无
Satellite Introduction
OneWeb卫星网络由648颗重约125公斤的微型卫星组成,运行在1200公里的轨道上。 每颗卫星都能够提供至少每秒8千兆位的吞吐量,以使用其高吞吐量的Ku频段有效载荷为家庭和移动平台提供互联网接入。该卫星仍在工作。
2D Orbit Map
3D Orbit Map
Orbit Altitude Analysis Chart
Orbit Inclination Analysis Chart
Orbit Comprehensive Analysis Chart
View Comprehensive Chart